Location: Meriden
(44.0740°N, 93.3870°W)
Time: 09:48:05
(UTC-05:00)

Amateur Radio Satellites - All Passes

Search period start: 02 September 2015 09:18
Search period end: 03 September 2015 09:18
Location: Meriden, 44.0740°N, 93.3870°W

Satellite Date Start Highest point End Downlink Frequencies (MHz)
Time Altitude Azimuth
SEEDS 02 Sep 09:25:34 09:29:16 30° 95° (E) 09:33:00 437.485
UNISAT 6 02 Sep 09:29:32 09:31:50 14° 61° (ENE) 09:34:20 437.425
YUBILEINY 02 Sep 09:34:06 09:42:41 56° 269° (W) 09:51:08 435.215
Oscar 11 02 Sep 09:41:00 09:43:08 14° 88° (E) 09:45:29 145.826/435.025
COMPASS 1 02 Sep 09:44:41 09:48:34 38° 97° (E) 09:52:27 437.405
CUTE-I 02 Sep 09:46:56 09:48:09 11° 304° (NW) 09:49:05 437.470
BRITE-PL 02 Sep 09:53:23 09:58:20 34° 292° (WNW) 10:03:21 437.365/2234.400
AAUSAT CUBESAT 2 02 Sep 09:53:26 09:57:21 40° 98° (E) 10:01:15 437.432
TIGRISAT 02 Sep 09:55:51 09:59:30 23° 66° (ENE) 10:03:16 435.000
AUBIESAT-1 02 Sep 10:01:34 10:05:39 30° 63° (ENE) 10:09:42 437.475
CUSAT 1 02 Sep 10:05:59 10:12:36 31° 66° (ENE) 10:19:46 437.405
DELFI C3 02 Sep 10:07:05 10:09:31 16° 90° (E) 10:12:05 145.870
M-CUBED/EXP-1 PRIME 02 Sep 10:08:04 10:12:31 40° 65° (ENE) 10:16:55 437.505
SO-50 02 Sep 10:10:51 10:15:49 78° 238° (WSW) 10:20:39 436.795
ANTELSAT 02 Sep 10:12:58 10:17:12 34° 69° (ENE) 10:21:29 437.575/2403.000
GOMX 1 02 Sep 10:14:17 10:19:12 35° 292° (WNW) 10:24:06 467.674
AIST 1 02 Sep 10:16:58 10:17:18 10° 297° (WNW) 10:17:23
PHONESAT 2.4 02 Sep 10:18:32 10:21:14 21° 202° (SSW) 10:23:53 2401.200-2431.200
POLYITAN 1 02 Sep 10:19:42 10:22:04 15° 63° (ENE) 10:24:36 437.675
DOVE 4 02 Sep 10:19:53 10:24:58 45° 289° (WNW) 10:29:58 437.250
DUCHIFAT 1 02 Sep 10:20:46 10:22:58 14° 63° (ENE) 10:25:20 145.980
POPSAT HIP 1 02 Sep 10:21:36 10:24:00 15° 63° (ENE) 10:26:33 437.405
HO-68 02 Sep 10:22:25 10:29:39 78° 289° (WNW) 10:36:50 435.675
ISS 02 Sep 10:22:55 10:26:01 40° 338° (NNW) 10:29:07 145.825
Cosmos 2491 02 Sep 10:23:33 10:32:07 59° 284° (WNW) 10:40:43 435.465 / 435.565
ZACube-1 02 Sep 10:26:27 10:30:20 28° 94° (E) 10:34:10 437.345
CUTE 1.7 + AOD 2 02 Sep 10:28:17 10:32:18 42° 288° (WNW) 10:36:16 437.475
FUNcube-1 02 Sep 10:31:01 10:34:58 30° 94° (E) 10:38:53 145.935
CUBEBUG 2 02 Sep 10:33:05 10:37:43 57° 99° (E) 10:42:13 437.445
PCSat 02 Sep 10:34:40 10:39:54 46° 51° (NE) 10:45:08 145.827
UWE-3 02 Sep 10:36:41 10:41:08 48° 98° (E) 10:45:28 435.000/436.395/437.385
NANOSAT C BR1 02 Sep 10:37:46 10:40:57 22° 66° (ENE) 10:44:16 145.865
QB50P2 02 Sep 10:37:58 10:41:16 23° 67° (ENE) 10:44:41 145.880/145.840
CANX-2 02 Sep 10:42:52 10:46:31 28° 291° (WNW) 10:50:04 2200.000
DANDE 02 Sep 10:45:18 10:52:17 40° 70° (ENE) 11:00:11 436.750
Cosmos 2504 02 Sep 10:47:24 10:55:56 70° 78° (ENE) 11:03:55 435.465 / 435.565
QB50P1 02 Sep 10:51:35 10:55:16 30° 69° (ENE) 10:59:02 145.935-145.965
CINEMA 3 02 Sep 10:53:42 10:58:29 44° 289° (WNW) 11:03:05 145.822/145.860
HUMSAT D 02 Sep 10:58:04 11:01:28 23° 93° (E) 11:04:52 437.325/437.525
SEEDS 02 Sep 11:01:31 11:04:58 24° 292° (WNW) 11:08:18 437.485
UNISAT 6 02 Sep 11:03:20 11:08:02 77° 259° (W) 11:12:48 437.425
DX 1 02 Sep 11:11:11 11:14:13 18° 92° (E) 11:17:21 434.975-435.025
Oscar 11 02 Sep 11:15:30 11:19:45 57° 287° (WNW) 11:23:59 145.826/435.025
COMPASS 1 02 Sep 11:20:56 11:24:00 20° 294° (WNW) 11:26:57 437.405
UKube-1 02 Sep 11:20:58 11:24:13 21° 93° (E) 11:27:33 .
AAUSAT CUBESAT 2 02 Sep 11:29:44 11:32:41 19° 294° (WNW) 11:35:31 437.432
TIGRISAT 02 Sep 11:31:34 11:36:01 42° 263° (W) 11:40:30 435.000
ESTCUBE 1 02 Sep 11:33:16 11:35:59 16° 90° (E) 11:38:53 437.505/2401.250
AUBIESAT-1 02 Sep 11:35:55 11:40:15 34° 259° (WSW) 11:44:27 437.475
CUBEBUG 1 02 Sep 11:35:59 11:38:11 14° 89° (E) 11:40:37 437.445
AISAT 02 Sep 11:39:36 11:43:18 25° 94° (E) 11:47:02 437.250
DELFI C3 02 Sep 11:41:02 11:44:50 42° 288° (WNW) 11:48:35 145.870
M-CUBED/EXP-1 PRIME 02 Sep 11:43:19 11:47:21 26° 261° (W) 11:51:16 437.505
CUSAT 1 02 Sep 11:47:56 11:55:43 69° 264° (W) 12:03:51 437.405
ANTELSAT 02 Sep 11:49:59 11:54:01 27° 267° (W) 11:58:00 437.575/2403.000
POLYITAN 1 02 Sep 11:53:19 11:57:32 58° 260° (W) 12:01:48 437.675
DUCHIFAT 1 02 Sep 11:54:07 11:58:19 61° 259° (W) 12:02:34 145.980
BUGSAT 1 02 Sep 11:54:14 11:58:18 85° 77° (ENE) 12:02:28 437.445
SO-50 02 Sep 11:55:12 11:55:37 10° 253° (WSW) 11:55:42 436.795
POPSAT HIP 1 02 Sep 11:55:15 11:59:26 57° 260° (W) 12:03:41 437.405
ISS 02 Sep 12:00:27 12:03:01 21° 357° (N) 12:05:36 145.825
ZACube-1 02 Sep 12:02:43 12:06:40 29° 292° (WNW) 12:10:27 437.345
VELOX 1 02 Sep 12:06:53 12:11:11 45° 99° (E) 12:15:30 145.980
FUNcube-1 02 Sep 12:07:23 12:11:13 27° 292° (WNW) 12:14:55 145.935
50 SAT 02 Sep 12:07:33 12:11:22 57° 100° (E) 12:15:08 437.505
CUBEBUG 2 02 Sep 12:10:50 12:13:57 17° 297° (WNW) 12:16:53 437.445
HO-68 02 Sep 12:11:49 12:16:23 18° 308° (NW) 12:20:40 435.675
NANOSAT C BR1 02 Sep 12:12:37 12:16:35 37° 263° (W) 12:20:34 145.865
QB50P2 02 Sep 12:13:03 12:16:59 35° 263° (W) 12:20:56 145.880/145.840
UWE-3 02 Sep 12:13:59 12:17:19 19° 296° (WNW) 12:20:27 435.000/436.395/437.385
PCSat 02 Sep 12:18:30 12:23:08 28° 250° (WSW) 12:27:39 145.827
GONETS M04 02 Sep 12:25:58 12:31:17 18° 55° (NE) 12:37:03
QB50P1 02 Sep 12:27:31 12:31:08 26° 266° (W) 12:34:43 145.935-145.965
Cosmos 2491 02 Sep 12:27:47 12:31:30 13° 310° (NW) 12:34:37 435.465 / 435.565
DANDE 02 Sep 12:28:13 12:35:38 53° 266° (W) 12:43:46 436.750
Oscar 19 02 Sep 12:29:19 12:32:45 19° 62° (ENE) 12:36:22 437.125/150
HUMSAT D 02 Sep 12:33:27 12:37:15 32° 291° (WNW) 12:40:57 437.325/437.525
Cosmos 2504 02 Sep 12:40:42 12:47:25 26° 279° (W) 12:53:35 435.465 / 435.565
DX 1 02 Sep 12:46:30 12:50:42 44° 289° (WNW) 12:54:52 434.975-435.025
UKube-1 02 Sep 12:56:26 13:00:30 38° 290° (WNW) 13:04:31 .
SPROUT 02 Sep 12:59:25 13:03:21 33° 96° (E) 13:07:17 437.525
ESTCUBE 1 02 Sep 13:08:50 13:13:14 53° 287° (WNW) 13:17:36 437.505/2401.250
CUBEBUG 1 02 Sep 13:10:38 13:15:01 60° 286° (WNW) 13:19:22 437.445
AISAT 02 Sep 13:15:51 13:19:56 34° 291° (WNW) 13:23:57 437.250
Gurwin Techsat 1B 02 Sep 13:24:13 13:27:51 20° 62° (ENE) 13:31:39 435.225
ITAMSAT 1 02 Sep 13:32:04 13:35:30 19° 61° (ENE) 13:39:05 435.822/435.867
CUSAT 1 02 Sep 13:33:03 13:37:16 15° 279° (W) 13:41:04 437.405
ISS 02 Sep 13:37:10 13:40:06 30° 17° (NNE) 13:43:03 145.825
50 SAT 02 Sep 13:43:43 13:45:27 12° 297° (WNW) 13:47:02 437.505
VELOX 1 02 Sep 13:44:10 13:47:27 20° 295° (WNW) 13:50:37 145.980
JAS-2 02 Sep 13:55:25 14:01:39 28° 60° (ENE) 14:08:04 435.910
TISAT 1 02 Sep 13:56:06 14:00:24 78° 102° (ESE) 14:04:40 437.305
Cosmos 2499 02 Sep 13:59:56 14:05:18 18° 55° (NE) 14:10:52 435.465 / 435.565
BEESAT 02 Sep 13:59:57 14:02:36 15° 89° (E) 14:05:27 436.000
Oscar 19 02 Sep 14:06:31 14:11:39 64° 259° (WSW) 14:16:50 437.125/150
AO-7 02 Sep 14:16:15 14:22:09 23° 51° (NE) 14:28:19 29.400- 29.500
GONETS M04 02 Sep 14:21:08 14:29:59 77° 80° (E) 14:38:50
SWISSCUBE 02 Sep 14:25:07 14:29:14 29° 95° (E) 14:33:23 437.505
SPROUT 02 Sep 14:35:43 14:39:17 25° 293° (WNW) 14:42:47 437.525
HORYU 2 02 Sep 14:54:22 14:56:16 13° 61° (ENE) 14:58:21 437.375
Gurwin Techsat 1B 02 Sep 15:02:08 15:07:24 63° 259° (WSW) 15:12:42 435.225
ITUPSAT 1 02 Sep 15:04:10 15:08:54 63° 102° (ESE) 15:13:38 437.325
ITAMSAT 1 02 Sep 15:09:25 15:14:34 64° 259° (W) 15:19:43 435.822/435.867
BEESAT 3 02 Sep 15:12:33 15:16:34 66° 122° (ESE) 15:20:38 437.485
ISS 02 Sep 15:13:28 15:16:41 56° 216° (SW) 15:19:52 145.825
BEESAT 2 02 Sep 15:27:23 15:31:27 71° 122° (ESE) 15:35:34 435.950
TISAT 1 02 Sep 15:33:58 15:35:36 12° 299° (WNW) 15:37:02 437.305
BEESAT 02 Sep 15:36:13 15:40:57 62° 287° (WNW) 15:45:38 436.000
JAS-2 02 Sep 15:38:19 15:46:03 74° 258° (WSW) 15:53:56 435.910
Cosmos 2499 02 Sep 15:51:33 16:00:18 79° 80° (E) 16:08:24 435.465 / 435.565
STARS 02 Sep 15:53:59 15:57:22 22° 93° (E) 16:00:51 437.465
SWISSCUBE 02 Sep 16:02:50 16:07:05 33° 292° (WNW) 16:11:17 437.505
AO-7 02 Sep 16:05:37 16:13:59 86° 70° (ENE) 16:22:22 29.400- 29.500
RS-15 02 Sep 16:10:14 16:20:40 55° 114° (ESE) 16:31:35 29.354- 29.394
AIST 2 02 Sep 16:16:39 16:20:42 47° 119° (ESE) 16:24:50 435.215
KKS-1 02 Sep 16:16:41 16:21:10 62° 101° (E) 16:25:36 437.445
GONETS M04 02 Sep 16:19:18 16:26:00 24° 279° (W) 16:32:23
HORYU 2 02 Sep 16:27:50 16:32:20 78° 257° (WSW) 16:36:52 437.375
ITUPSAT 1 02 Sep 16:43:17 16:46:21 17° 298° (WNW) 16:49:14 437.325
MOZHAYETS 4 02 Sep 16:43:34 16:46:45 19° 91° (E) 16:50:04
BEESAT 3 02 Sep 16:52:05 16:54:56 18° 321° (NW) 16:57:41 437.485
Cubesat XI-IV 02 Sep 17:05:48 17:08:33 15° 59° (ENE) 17:11:31 437.490
BEESAT 2 02 Sep 17:07:11 17:09:58 17° 322° (NW) 17:12:41 435.950
JAS-2 02 Sep 17:28:05 17:32:31 15° 279° (W) 17:36:27 435.910
STARS 02 Sep 17:29:49 17:33:58 39° 290° (WNW) 17:38:05 437.465
Cosmos 2499 02 Sep 17:46:06 17:52:31 23° 280° (W) 17:58:20 435.465 / 435.565
CUTE-I 02 Sep 17:47:54 17:52:32 32° 66° (ENE) 17:57:15 437.470
KKS-1 02 Sep 17:54:38 17:57:21 16° 298° (WNW) 17:59:55 437.445
AIST 2 02 Sep 17:56:02 17:59:30 23° 318° (NW) 18:02:56 435.215
AO-7 02 Sep 18:01:47 18:07:55 21° 271° (W) 18:13:41 29.400- 29.500
MOZHAYETS 4 02 Sep 18:19:54 18:24:16 45° 288° (WNW) 18:28:35
RS-15 02 Sep 18:22:37 18:33:19 52° 319° (NW) 18:44:28 29.354- 29.394
Cosmos 2491 02 Sep 18:36:34 18:41:48 18° 55° (NE) 18:47:29 435.465 / 435.565
AIST 1 02 Sep 18:40:42 18:44:07 23° 71° (ENE) 18:47:37
CUBESAT XI-V 02 Sep 18:42:13 18:46:14 29° 94° (E) 18:50:20 437.345
Cubesat XI-IV 02 Sep 18:42:40 18:48:00 87° 253° (WSW) 18:53:23 437.490
HO-68 02 Sep 19:07:16 19:12:08 21° 54° (NE) 19:17:15 435.675
O/OREOS (USA 219) 02 Sep 19:14:08 19:18:38 66° 111° (ESE) 19:23:11 437.305
STRAND 1 02 Sep 19:20:54 19:24:32 20° 91° (E) 19:28:19 437.568
BRITE-PL 02 Sep 19:27:34 19:31:45 42° 70° (ENE) 19:36:18 437.365/2234.400
CUTE-I 02 Sep 19:27:42 19:32:35 36° 264° (W) 19:37:26 437.470
GOMX 1 02 Sep 19:45:55 19:50:10 39° 69° (ENE) 19:54:47 467.674
CUTE 1.7 + AOD 2 02 Sep 19:48:02 19:50:42 17° 65° (ENE) 19:53:30 437.475
DOVE 4 02 Sep 19:49:46 19:53:42 27° 66° (ENE) 19:57:56 437.250
PRISM 02 Sep 19:51:58 19:55:18 24° 94° (E) 19:58:42 437.425
CANX-2 02 Sep 20:01:28 20:04:55 25° 68° (ENE) 20:08:28 2200.000
AIST 1 02 Sep 20:17:57 20:21:52 33° 269° (W) 20:25:45
SEEDS 02 Sep 20:19:01 20:22:35 27° 69° (ENE) 20:26:12 437.485
CUBESAT XI-V 02 Sep 20:19:34 20:23:41 31° 291° (WNW) 20:27:43 437.345
CINEMA 3 02 Sep 20:20:09 20:23:59 25° 66° (ENE) 20:28:02 145.822/145.860
Cubesat XI-IV 02 Sep 20:27:16 20:29:01 11° 275° (W) 20:30:26 437.490
Cosmos 2491 02 Sep 20:31:43 20:40:31 77° 80° (E) 20:49:19 435.465 / 435.565
COMPASS 1 02 Sep 20:37:10 20:40:54 33° 70° (ENE) 20:44:42 437.405
Oscar 11 02 Sep 20:37:37 20:39:54 15° 63° (ENE) 20:42:21 145.826/435.025
RS-15 02 Sep 20:40:01 20:49:16 27° 351° (N) 20:58:48 29.354- 29.394
YUBILEINY 02 Sep 20:40:38 20:48:21 38° 86° (E) 20:56:17 435.215
AAUSAT CUBESAT 2 02 Sep 20:45:27 20:49:12 34° 70° (ENE) 20:53:01 437.432
HO-68 02 Sep 20:51:52 20:59:03 89° 252° (WSW) 21:06:19 435.675
O/OREOS (USA 219) 02 Sep 20:55:37 20:58:36 16° 311° (NW) 21:01:28 437.305
DELFI C3 02 Sep 20:56:22 20:58:17 13° 64° (ENE) 21:00:21 145.870
STRAND 1 02 Sep 20:59:08 21:04:08 53° 289° (WNW) 21:09:05 437.568
BRITE-PL 02 Sep 21:07:10 21:10:36 21° 271° (W) 21:14:06 437.365/2234.400
CUTE 1.7 + AOD 2 02 Sep 21:22:05 21:26:16 50° 261° (W) 21:30:27 437.475
ZACube-1 02 Sep 21:23:35 21:27:27 29° 68° (ENE) 21:31:27 437.345
GOMX 1 02 Sep 21:24:44 21:28:30 24° 269° (W) 21:32:24 467.674
DOVE 4 02 Sep 21:26:59 21:31:19 36° 265° (W) 21:35:53 437.250
PRISM 02 Sep 21:27:08 21:30:45 30° 291° (WNW) 21:34:20 437.425
FUNcube-1 02 Sep 21:27:52 21:31:50 30° 68° (ENE) 21:35:53 145.935
CUBEBUG 2 02 Sep 21:32:08 21:36:43 57° 73° (ENE) 21:41:25 437.445
UWE-3 02 Sep 21:34:42 21:39:08 47° 72° (ENE) 21:43:40 435.000/436.395/437.385
CANX-2 02 Sep 21:36:52 21:40:44 32° 264° (W) 21:44:35 2200.000
HUMSAT D 02 Sep 21:51:15 21:54:31 22° 67° (ENE) 21:57:54 437.325/437.525
BEESAT 3 02 Sep 21:53:35 21:54:50 11° 32° (NNE) 21:56:12 437.485
SEEDS 02 Sep 21:54:36 21:58:19 28° 265° (W) 22:01:59 437.485
CINEMA 3 02 Sep 21:56:29 22:00:58 40° 264° (W) 22:05:37 145.822/145.860
DX 1 02 Sep 22:08:23 22:11:32 20° 65° (ENE) 22:14:48 434.975-435.025
BEESAT 2 02 Sep 22:08:41 22:10:16 12° 33° (NNE) 22:11:56 435.950
Oscar 11 02 Sep 22:11:19 22:15:38 62° 259° (W) 22:19:58 145.826/435.025
COMPASS 1 02 Sep 22:13:14 22:16:39 23° 267° (W) 22:19:57 437.405
UKube-1 02 Sep 22:17:18 22:20:36 22° 66° (ENE) 22:24:01 .
AAUSAT CUBESAT 2 02 Sep 22:21:35 22:24:53 22° 267° (W) 22:28:07 437.432
DELFI C3 02 Sep 22:28:55 22:32:55 58° 260° (W) 22:36:55 145.870
Cosmos 2491 02 Sep 22:29:55 22:36:34 24° 279° (W) 22:42:53 435.465 / 435.565
CUBEBUG 1 02 Sep 22:33:58 22:36:19 15° 63° (ENE) 22:38:51 437.445
ESTCUBE 1 02 Sep 22:34:29 22:37:33 19° 65° (ENE) 22:40:45 437.505/2401.250
YUBILEINY 02 Sep 22:36:27 22:44:59 52° 287° (WNW) 22:53:33 435.215
AISAT 02 Sep 22:38:48 22:42:30 27° 67° (ENE) 22:46:17 437.250
HO-68 02 Sep 22:43:20 22:47:54 17° 274° (W) 22:52:06 435.675
50 SAT 02 Sep 22:52:05 22:55:45 38° 72° (ENE) 22:59:28 437.505
UNISAT 6 02 Sep 22:54:50 22:58:10 20° 91° (E) 23:01:34 437.425
RS-15 02 Sep 22:56:04 23:06:16 34° 25° (NNE) 23:17:00 29.354- 29.394
ZACube-1 02 Sep 22:59:38 23:03:44 31° 265° (W) 23:07:50 437.345
AIST 2 02 Sep 23:01:03 23:01:22 10° 29° (NNE) 23:01:48 435.215
FUNcube-1 02 Sep 23:04:06 23:08:07 29° 266° (W) 23:12:07 145.935
VELOX 1 02 Sep 23:05:43 23:09:57 48° 71° (ENE) 23:14:14 145.980
CUBEBUG 2 02 Sep 23:10:45 23:13:49 17° 272° (W) 23:16:45 437.445
UWE-3 02 Sep 23:12:32 23:15:56 19° 270° (W) 23:19:15 435.000/436.395/437.385
AUBIESAT-1 02 Sep 23:16:39 23:18:26 13° 93° (E) 23:20:20 437.475
CUSAT 1 02 Sep 23:16:49 23:19:14 15° 80° (E) 23:22:13 437.405
Cosmos 2504 02 Sep 23:18:19 23:26:08 52° 90° (E) 23:34:23 435.465 / 435.565
TIGRISAT 02 Sep 23:21:53 23:26:06 36° 96° (E) 23:30:14 435.000
M-CUBED/EXP-1 PRIME 02 Sep 23:23:26 23:26:16 19° 96° (E) 23:29:00 437.505
HUMSAT D 02 Sep 23:26:00 23:30:03 38° 263° (W) 23:34:05 437.325/437.525
BEESAT 3 02 Sep 23:29:35 23:33:37 63° 53° (NE) 23:37:34 437.485
BUGSAT 1 02 Sep 23:36:58 23:38:21 12° 88° (E) 23:39:59 437.445
POLYITAN 1 02 Sep 23:37:51 23:41:03 21° 92° (E) 23:44:20 437.675
DUCHIFAT 1 02 Sep 23:38:00 23:41:03 19° 92° (E) 23:44:13 145.980
POPSAT HIP 1 02 Sep 23:39:30 23:42:43 21° 92° (E) 23:46:02 437.405
ANTELSAT 02 Sep 23:39:46 23:44:17 59° 100° (E) 23:48:41 437.575/2403.000
DX 1 02 Sep 23:43:25 23:47:32 41° 262° (W) 23:51:40 434.975-435.025
BEESAT 2 02 Sep 23:45:02 23:49:06 69° 54° (NE) 23:53:06 435.950
UKube-1 02 Sep 23:52:32 23:56:33 36° 263° (W) 00:00:33 .
SPROUT 02 Sep 23:54:57 23:58:43 31° 69° (ENE) 00:02:34 437.525
NANOSAT C BR1 02 Sep 23:55:51 23:59:38 30° 95° (E) 00:03:27 145.865
QB50P2 02 Sep 23:56:37 00:00:30 32° 96° (E) 00:04:23 145.880/145.840
DANDE 03 Sep 00:00:30 00:03:26 22° 85° (E) 00:07:08 436.750
CUBEBUG 1 03 Sep 00:07:58 00:12:14 60° 259° (W) 00:16:33 437.445
ESTCUBE 1 03 Sep 00:09:47 00:14:07 48° 261° (W) 00:18:28 437.505/2401.250
QB50P1 03 Sep 00:10:17 00:14:25 44° 98° (E) 00:18:32 145.935-145.965
AISAT 03 Sep 00:15:04 00:19:00 31° 264° (W) 00:22:55 437.250
SO-50 03 Sep 00:27:05 00:30:56 25° 113° (ESE) 00:34:59 436.795
50 SAT 03 Sep 00:27:44 00:30:28 17° 269° (W) 00:33:05 437.505
UNISAT 6 03 Sep 00:30:52 00:35:12 42° 289° (WNW) 00:39:23 437.425
AIST 2 03 Sep 00:36:54 00:40:59 49° 50° (NE) 00:45:00 435.215
ITUPSAT 1 03 Sep 00:38:22 00:39:49 12° 59° (ENE) 00:41:31 437.325
YUBILEINY 03 Sep 00:42:18 00:44:39 11° 313° (NW) 00:46:22 435.215
VELOX 1 03 Sep 00:43:52 00:46:49 17° 270° (W) 00:49:39 145.980
TISAT 1 03 Sep 00:49:17 00:53:27 69° 74° (ENE) 00:57:41 437.305
AUBIESAT-1 03 Sep 00:49:49 00:53:35 46° 294° (WNW) 00:57:04 437.475
CUSAT 1 03 Sep 00:56:39 01:00:48 57° 286° (WNW) 01:06:24 437.405
M-CUBED/EXP-1 PRIME 03 Sep 00:57:37 01:01:14 33° 296° (WNW) 01:04:32 437.505
TIGRISAT 03 Sep 00:58:58 01:02:40 24° 294° (WNW) 01:06:12 435.000
BEESAT 03 Sep 01:07:39 01:11:13 22° 64° (ENE) 01:14:54 436.000
RS-15 03 Sep 01:09:02 01:20:54 80° 53° (NE) 01:33:12 29.354- 29.394
BEESAT 3 03 Sep 01:09:05 01:11:03 13° 249° (WSW) 01:12:51 437.485
BUGSAT 1 03 Sep 01:10:05 01:14:20 68° 286° (WNW) 01:18:34 437.445
Cosmos 2504 03 Sep 01:11:02 01:18:40 38° 291° (WNW) 01:26:29 435.465 / 435.565
DUCHIFAT 1 03 Sep 01:13:01 01:17:03 40° 289° (WNW) 01:21:02 145.980
POLYITAN 1 03 Sep 01:13:05 01:17:07 38° 290° (WNW) 01:21:05 437.675
POPSAT HIP 1 03 Sep 01:14:44 01:18:45 37° 290° (WNW) 01:22:42 437.405
ANTELSAT 03 Sep 01:17:44 01:20:36 16° 297° (WNW) 01:23:17 437.575/2403.000
PCSat 03 Sep 01:18:22 01:22:57 30° 111° (ESE) 01:27:40 145.827
BEESAT 2 03 Sep 01:24:56 01:26:39 12° 250° (WSW) 01:28:09 435.950
SPROUT 03 Sep 01:31:13 01:34:49 25° 266° (W) 01:38:23 437.525
GONETS M04 03 Sep 01:31:41 01:36:31 17° 77° (ENE) 01:41:53
NANOSAT C BR1 03 Sep 01:31:46 01:35:22 26° 292° (WNW) 01:38:54 145.865
QB50P2 03 Sep 01:32:43 01:36:15 25° 293° (WNW) 01:39:42 145.880/145.840
SWISSCUBE 03 Sep 01:32:58 01:37:22 40° 70° (ENE) 01:41:50 437.505
DANDE 03 Sep 01:42:47 01:46:16 30° 294° (WNW) 01:50:44 436.750
QB50P1 03 Sep 01:46:54 01:49:59 19° 295° (WNW) 01:52:56 145.935-145.965
SO-50 03 Sep 02:06:34 02:11:14 48° 311° (NW) 02:16:03 436.795
ITUPSAT 1 03 Sep 02:12:16 02:17:03 86° 75° (ENE) 02:21:50 437.325
AIST 2 03 Sep 02:16:19 02:19:12 18° 248° (WSW) 02:21:57 435.215
Oscar 19 03 Sep 02:16:40 02:21:33 40° 97° (E) 02:26:26 437.125/150
TISAT 1 03 Sep 02:28:24 02:29:46 11° 273° (W) 02:30:55 437.305
Cosmos 2499 03 Sep 02:42:25 02:45:01 12° 73° (ENE) 02:48:20 435.465 / 435.565
BEESAT 03 Sep 02:44:13 02:48:48 46° 261° (W) 02:53:23 436.000
JAS-2 03 Sep 02:49:33 02:53:24 16° 82° (E) 02:57:20 435.910
STARS 03 Sep 02:52:18 02:55:48 24° 66° (ENE) 02:59:24 437.465
PCSat 03 Sep 03:01:02 03:06:13 44° 309° (NW) 03:11:25 145.827
VERMONT LUNAR 03 Sep 03:11:07 03:13:14 18° 158° (SSE) 03:15:21 437.305
SWISSCUBE 03 Sep 03:11:31 03:15:24 24° 267° (W) 03:19:10 437.505
KKS-1 03 Sep 03:16:01 03:20:26 67° 74° (ENE) 03:24:54 437.445
Gurwin Techsat 1B 03 Sep 03:16:49 03:21:56 46° 98° (E) 03:27:02 435.225
ITAMSAT 1 03 Sep 03:20:48 03:25:40 40° 97° (E) 03:30:33 435.822/435.867
RS-15 03 Sep 03:22:26 03:32:30 32° 254° (WSW) 03:42:24 29.354- 29.394
GONETS M04 03 Sep 03:23:29 03:32:09 84° 97° (E) 03:40:56
O/OREOS (USA 219) 03 Sep 03:44:06 03:47:32 21° 52° (NE) 03:51:02 437.305
MOZHAYETS 4 03 Sep 03:46:58 03:50:29 23° 66° (ENE) 03:54:06
SO-50 03 Sep 03:50:54 03:53:03 12° 334° (NNW) 03:55:07 436.795
ITUPSAT 1 03 Sep 03:54:27 03:55:41 11° 274° (W) 03:56:37 437.325
Oscar 19 03 Sep 03:56:20 04:00:46 28° 295° (WNW) 04:05:05 437.125/150
AO-7 03 Sep 04:06:27 04:12:56 26° 91° (E) 04:19:39 29.400- 29.500
HORYU 2 03 Sep 04:18:34 04:21:33 18° 91° (E) 04:24:40 437.375
STARS 03 Sep 04:27:59 04:32:05 36° 263° (W) 04:36:11 437.465
Cosmos 2499 03 Sep 04:28:10 04:36:30 62° 93° (E) 04:45:16 435.465 / 435.565
JAS-2 03 Sep 04:32:40 04:39:44 86° 286° (WNW) 04:45:53 435.910
PHONESAT 2.4 03 Sep 04:41:50 04:43:05 12° 151° (SSE) 04:44:24 2401.200-2431.200
VERMONT LUNAR 03 Sep 04:46:25 04:49:14 38° 174° (S) 04:52:02 437.305
PCSat 03 Sep 04:49:22 04:51:10 11° 332° (NNW) 04:52:48 145.827
KKS-1 03 Sep 04:55:33 04:57:37 13° 272° (W) 04:59:28 437.445
Gurwin Techsat 1B 03 Sep 04:57:19 05:01:41 26° 296° (WNW) 05:05:56 435.225
ITAMSAT 1 03 Sep 05:00:37 05:05:02 28° 295° (WNW) 05:09:21 435.822/435.867
O/OREOS (USA 219) 03 Sep 05:22:49 05:27:17 50° 251° (WSW) 05:31:43 437.305
MOZHAYETS 4 03 Sep 05:23:07 05:27:30 41° 262° (W) 05:31:51
GONETS M04 03 Sep 05:23:35 05:30:18 23° 300° (WNW) 05:36:45
CUBESAT XI-V 03 Sep 05:47:02 05:51:07 34° 69° (ENE) 05:55:17 437.345
HORYU 2 03 Sep 05:54:11 05:58:29 46° 289° (WNW) 06:02:43 437.375
AO-7 03 Sep 05:58:17 06:06:34 74° 292° (WNW) 06:14:48 29.400- 29.500
CUTE-I 03 Sep 06:06:23 06:06:51 10° 84° (E) 06:07:42 437.470
PHONESAT 2.4 03 Sep 06:17:17 06:20:23 33° 166° (SSE) 06:23:30 2401.200-2431.200
JAS-2 03 Sep 06:19:12 06:23:44 18° 306° (NW) 06:27:44 435.910
VERMONT LUNAR 03 Sep 06:22:37 06:25:22 34° 190° (S) 06:28:06 437.305
Cosmos 2499 03 Sep 06:22:40 06:30:21 33° 294° (WNW) 06:38:03 435.465 / 435.565
STRAND 1 03 Sep 06:37:59 06:42:30 34° 67° (ENE) 06:47:05 437.568
PRISM 03 Sep 06:43:36 06:46:45 22° 67° (ENE) 06:49:59 437.425
YUBILEINY 03 Sep 06:48:51 06:54:52 20° 58° (ENE) 07:01:13 435.215
Cubesat XI-IV 03 Sep 06:58:43 07:03:29 33° 95° (E) 07:08:19 437.490
AIST 1 03 Sep 07:13:53 07:15:22 12° 85° (E) 07:17:05
SO-50 03 Sep 07:17:53 07:18:58 11° 23° (NNE) 07:20:10 436.795
CUBESAT XI-V 03 Sep 07:24:44 07:28:38 26° 267° (W) 07:32:27 437.345
BRITE-PL 03 Sep 07:31:11 07:34:25 16° 87° (E) 07:37:58 437.365/2234.400
Cosmos 2491 03 Sep 07:42:22 07:47:13 17° 77° (ENE) 07:52:35 435.465 / 435.565
CUTE-I 03 Sep 07:42:32 07:47:54 81° 103° (ESE) 07:53:15 437.470
GOMX 1 03 Sep 07:47:32 07:49:53 13° 85° (E) 07:52:32 467.674
AO-7 03 Sep 07:52:38 07:58:10 19° 312° (NW) 08:03:23 29.400- 29.500
ISS 03 Sep 07:54:10 07:56:30 19° 135° (SE) 07:58:54 145.825
PHONESAT 2.4 03 Sep 07:54:41 07:57:58 45° 183° (S) 08:01:14 2401.200-2431.200
VERMONT LUNAR 03 Sep 07:59:46 08:01:17 13° 206° (SSW) 08:02:45 437.305
STRAND 1 03 Sep 08:17:11 08:21:43 32° 265° (W) 08:26:14 437.568
PRISM 03 Sep 08:18:19 08:22:02 32° 263° (W) 08:25:44 437.425
HO-68 03 Sep 08:20:00 08:23:49 16° 86° (E) 08:28:03 435.675
Cubesat XI-IV 03 Sep 08:38:48 08:43:36 35° 293° (WNW) 08:48:21 437.490
YUBILEINY 03 Sep 08:44:22 08:53:16 87° 82° (E) 09:02:05 435.215
AIST 1 03 Sep 08:48:20 08:52:32 60° 281° (W) 08:56:46
SO-50 03 Sep 08:56:22 09:00:59 37° 45° (NE) 09:05:31 436.795
Cosmos 2504 03 Sep 09:04:13 09:09:43 19° 57° (ENE) 09:15:25 435.465 / 435.565
CUTE 1.7 + AOD 2 03 Sep 09:06:10 09:09:35 24° 93° (E) 09:13:02 437.475
